BAW753 EDDF-EDDP

Flight info

Callsign BAW753
Flight time 0h 40m
Altitude 23000
Route SULUS4D/07C SULUS Z12 LASGA/N0395F220 T953 VOCIM/N0389F210 T954 GOXLI GOXLI1V
Aircraft A319/M-SDE3FGHIRWY/LB1

Departure

Time 2026-04-14 11:01
Airport Frankfurt Main Airport (EDDF)

Arrival

Time 2026-04-14 11:42
Airport Leipzig/Halle Airport (EDDP)
Time Latitude Longitude Altitude Speed Heading
2026-04-14 10:14 50.04977 8.59152 363 ft 0 kts 160°
2026-04-14 10:48 50.04988 8.59146 362 ft 3 kts 160°
2026-04-14 10:48 50.05007 8.59135 364 ft 3 kts 160°
2026-04-14 10:48 50.05024 8.59126 360 ft 3 kts 187°
2026-04-14 10:49 50.05038 8.59136 360 ft 3 kts 240°
2026-04-14 10:49 50.05044 8.59153 360 ft 2 kts 250°
2026-04-14 10:49 50.05047 8.59167 363 ft 0 kts 250°
2026-04-14 10:49 50.05047 8.59168 363 ft 1 kts 250°
2026-04-14 10:51 50.05047 8.59167 363 ft 0 kts 250°
2026-04-14 10:53 50.05041 8.59142 360 ft 4 kts 250°
2026-04-14 10:53 50.05028 8.59086 360 ft 7 kts 250°
2026-04-14 10:53 50.05009 8.59006 362 ft 9 kts 250°
2026-04-14 10:53 50.04984 8.58901 362 ft 12 kts 250°
2026-04-14 10:54 50.04953 8.58769 362 ft 14 kts 249°
2026-04-14 10:54 50.04896 8.58680 361 ft 12 kts 175°
2026-04-14 10:54 50.04832 8.58715 370 ft 0 kts 160°
2026-04-14 10:54 50.04827 8.58718 367 ft 3 kts 160°
2026-04-14 10:55 50.04799 8.58733 369 ft 6 kts 160°
2026-04-14 10:55 50.04741 8.58757 368 ft 11 kts 181°
2026-04-14 10:55 50.04695 8.58657 371 ft 13 kts 250°
2026-04-14 10:55 50.04660 8.58507 369 ft 16 kts 250°
2026-04-14 10:56 50.04617 8.58328 368 ft 19 kts 250°
2026-04-14 10:56 50.04565 8.58108 364 ft 24 kts 249°
2026-04-14 10:56 50.04510 8.57881 366 ft 23 kts 250°
2026-04-14 10:56 50.04452 8.57638 365 ft 25 kts 250°
2026-04-14 10:57 50.04391 8.57380 364 ft 26 kts 249°
2026-04-14 10:57 50.04329 8.57124 361 ft 24 kts 249°
2026-04-14 10:57 50.04270 8.56876 360 ft 25 kts 249°
2026-04-14 10:57 50.04206 8.56606 359 ft 23 kts 249°
2026-04-14 10:58 50.04147 8.56358 357 ft 25 kts 250°
2026-04-14 10:58 50.04085 8.56098 353 ft 26 kts 250°
2026-04-14 10:58 50.04018 8.55819 354 ft 26 kts 249°
2026-04-14 10:58 50.03953 8.55550 351 ft 27 kts 249°
2026-04-14 10:59 50.03890 8.55284 353 ft 23 kts 249°
2026-04-14 10:59 50.03829 8.55031 353 ft 26 kts 250°
2026-04-14 10:59 50.03773 8.54792 351 ft 16 kts 250°
2026-04-14 10:59 50.03701 8.54706 345 ft 6 kts 177°
2026-04-14 11:00 50.03648 8.54733 352 ft 10 kts 159°
2026-04-14 11:00 50.03589 8.54805 346 ft 12 kts 106°
2026-04-14 11:00 50.03616 8.54946 346 ft 16 kts 71°
2026-04-14 11:00 50.03690 8.55253 346 ft 57 kts 69°
2026-04-14 11:01 50.03899 8.56122 356 ft 114 kts 69°
2026-04-14 11:01 50.04241 8.57515 518 ft 150 kts 66°
2026-04-14 11:01 50.04626 8.59053 1146 ft 157 kts 66°
2026-04-14 11:01 50.05022 8.60690 1741 ft 170 kts 68°
2026-04-14 11:02 50.05433 8.62528 2172 ft 192 kts 69°
2026-04-14 11:02 50.05897 8.64659 2577 ft 220 kts 69°
2026-04-14 11:02 50.06391 8.66939 3583 ft 222 kts 68°
2026-04-14 11:02 50.06886 8.69225 4669 ft 224 kts 69°
2026-04-14 11:03 50.07178 8.71643 5588 ft 235 kts 88°
2026-04-14 11:03 50.06951 8.74315 6184 ft 262 kts 98°
2026-04-14 11:03 50.06614 8.77191 6970 ft 275 kts 99°
2026-04-14 11:03 50.06261 8.80154 7896 ft 282 kts 99°
2026-04-14 11:04 50.05902 8.83185 8857 ft 288 kts 99°
2026-04-14 11:04 50.05786 8.86360 9863 ft 292 kts 89°
2026-04-14 11:04 50.05842 8.89554 10685 ft 301 kts 89°
2026-04-14 11:04 50.05900 8.92937 11038 ft 325 kts 89°
2026-04-14 11:05 50.05959 8.96571 11426 ft 344 kts 89°
2026-04-14 11:05 50.06023 9.00295 12118 ft 352 kts 89°
2026-04-14 11:05 50.06089 9.04128 12882 ft 357 kts 89°
2026-04-14 11:05 50.06154 9.08022 13657 ft 362 kts 89°
2026-04-14 11:06 50.06215 9.11969 14362 ft 367 kts 90°
2026-04-14 11:06 50.06274 9.15966 15043 ft 371 kts 90°
2026-04-14 11:06 50.06333 9.20051 15778 ft 374 kts 90°
2026-04-14 11:06 50.06387 9.24058 16478 ft 377 kts 90°
2026-04-14 11:07 50.06443 9.28162 17171 ft 381 kts 90°
2026-04-14 11:07 50.06499 9.32354 17870 ft 385 kts 90°
2026-04-14 11:07 50.06552 9.36490 18538 ft 389 kts 90°
2026-04-14 11:07 50.06603 9.40725 19145 ft 393 kts 90°
2026-04-14 11:08 50.06654 9.45047 19767 ft 397 kts 90°
2026-04-14 11:08 50.06703 9.49361 20401 ft 400 kts 90°
2026-04-14 11:08 50.06753 9.53713 21022 ft 404 kts 90°
2026-04-14 11:08 50.06804 9.58100 21634 ft 407 kts 90°
2026-04-14 11:09 50.06851 9.62520 22217 ft 411 kts 90°
2026-04-14 11:09 50.06900 9.66981 22795 ft 414 kts 90°
2026-04-14 11:09 50.06950 9.71467 23104 ft 415 kts 90°
2026-04-14 11:10 50.07041 9.80452 23163 ft 415 kts 90°
2026-04-14 11:10 50.07079 9.84940 23158 ft 415 kts 90°
2026-04-14 11:10 50.07113 9.89438 23159 ft 415 kts 90°
2026-04-14 11:10 50.07145 9.93921 23167 ft 415 kts 90°
2026-04-14 11:11 50.07174 9.98417 23175 ft 415 kts 90°
2026-04-14 11:11 50.07202 10.02901 23170 ft 415 kts 90°
2026-04-14 11:11 50.07229 10.07392 23168 ft 415 kts 90°
2026-04-14 11:11 50.07259 10.11888 23163 ft 415 kts 90°
2026-04-14 11:12 50.07287 10.16374 23172 ft 414 kts 90°
2026-04-14 11:12 50.07312 10.20854 23174 ft 414 kts 90°
2026-04-14 11:12 50.07338 10.25328 23177 ft 414 kts 90°
2026-04-14 11:12 50.07364 10.29806 23175 ft 413 kts 90°
2026-04-14 11:13 50.07387 10.34281 23176 ft 413 kts 90°
2026-04-14 11:13 50.07411 10.38747 23177 ft 413 kts 90°
2026-04-14 11:13 50.07434 10.43223 23175 ft 413 kts 90°
2026-04-14 11:13 50.07456 10.47689 23171 ft 413 kts 90°
2026-04-14 11:14 50.07477 10.52159 23168 ft 413 kts 90°
2026-04-14 11:14 50.07492 10.56627 23164 ft 413 kts 90°
2026-04-14 11:14 50.07501 10.61082 23171 ft 412 kts 90°
2026-04-14 11:14 50.07550 10.65547 23167 ft 412 kts 86°
2026-04-14 11:15 50.08035 10.69944 23166 ft 413 kts 75°
2026-04-14 11:15 50.09046 10.74124 23166 ft 413 kts 64°
2026-04-14 11:15 50.10528 10.77954 23157 ft 413 kts 53°
2026-04-14 11:15 50.12385 10.81361 23159 ft 413 kts 48°
2026-04-14 11:16 50.14304 10.84694 23156 ft 413 kts 47°
2026-04-14 11:16 50.16226 10.88026 23156 ft 413 kts 47°
2026-04-14 11:16 50.18148 10.91363 23152 ft 414 kts 47°
2026-04-14 11:16 50.20069 10.94708 23155 ft 414 kts 48°
2026-04-14 11:17 50.21986 10.98053 23152 ft 414 kts 48°
2026-04-14 11:17 50.23903 11.01405 23152 ft 413 kts 48°
2026-04-14 11:17 50.25836 11.04795 23150 ft 413 kts 48°
2026-04-14 11:17 50.27723 11.08109 23148 ft 413 kts 48°
2026-04-14 11:18 50.29627 11.11465 23143 ft 413 kts 48°
2026-04-14 11:18 50.31559 11.14865 23151 ft 412 kts 47°
2026-04-14 11:18 50.33644 11.17845 23158 ft 411 kts 36°
2026-04-14 11:18 50.36089 11.20152 23164 ft 410 kts 25°
2026-04-14 11:19 50.38763 11.21662 23165 ft 409 kts 13°
2026-04-14 11:19 50.41569 11.22311 23162 ft 408 kts
2026-04-14 11:19 50.44401 11.22188 23161 ft 407 kts 356°
2026-04-14 11:19 50.47064 11.21975 23161 ft 407 kts 356°
2026-04-14 11:20 50.49889 11.21763 23157 ft 407 kts 356°
2026-04-14 11:20 50.52723 11.21556 23159 ft 407 kts 356°
2026-04-14 11:20 50.55585 11.21352 23159 ft 407 kts 356°
2026-04-14 11:20 50.58378 11.21149 23151 ft 407 kts 355°
2026-04-14 11:21 50.60289 11.21045 23139 ft 408 kts 359°
2026-04-14 11:21 50.63116 11.21450 23140 ft 409 kts
2026-04-14 11:21 50.65868 11.22624 23145 ft 411 kts 19°
2026-04-14 11:21 50.68482 11.24437 23144 ft 411 kts 24°
2026-04-14 11:22 50.71076 11.26338 23141 ft 411 kts 24°
2026-04-14 11:22 50.73681 11.28240 23139 ft 412 kts 24°
2026-04-14 11:22 50.76277 11.30132 23143 ft 411 kts 24°
2026-04-14 11:22 50.78873 11.32024 23163 ft 411 kts 24°
2026-04-14 11:23 50.81469 11.33919 23157 ft 411 kts 24°
2026-04-14 11:23 50.84062 11.35812 23159 ft 411 kts 24°
2026-04-14 11:23 50.86662 11.37713 23155 ft 411 kts 25°
2026-04-14 11:23 50.89254 11.39616 23150 ft 411 kts 25°
2026-04-14 11:24 50.91843 11.41523 23148 ft 411 kts 25°
2026-04-14 11:24 50.94439 11.43437 23152 ft 411 kts 24°
2026-04-14 11:24 50.97034 11.45349 23145 ft 411 kts 24°
2026-04-14 11:24 50.99625 11.47264 23153 ft 411 kts 25°
2026-04-14 11:25 51.02211 11.49182 22978 ft 409 kts 25°
2026-04-14 11:25 51.04798 11.51097 22251 ft 412 kts 25°
2026-04-14 11:25 51.07257 11.53384 21748 ft 407 kts 37°
2026-04-14 11:25 51.09319 11.56421 21258 ft 402 kts 50°
2026-04-14 11:26 51.10899 11.60036 20771 ft 397 kts 62°
2026-04-14 11:26 51.11964 11.64053 20256 ft 392 kts 74°
2026-04-14 11:26 51.12526 11.68253 19760 ft 387 kts 81°
2026-04-14 11:26 51.12975 11.72454 19238 ft 383 kts 81°
2026-04-14 11:27 51.13420 11.76620 18716 ft 380 kts 81°
2026-04-14 11:27 51.13855 11.80748 18156 ft 377 kts 81°
2026-04-14 11:27 51.14282 11.84843 17611 ft 373 kts 82°
2026-04-14 11:27 51.14704 11.88884 17080 ft 369 kts 81°
2026-04-14 11:28 51.15123 11.92897 16551 ft 366 kts 82°
2026-04-14 11:28 51.15538 11.96874 16019 ft 363 kts 82°
2026-04-14 11:28 51.15948 12.00822 15492 ft 360 kts 82°
2026-04-14 11:28 51.16353 12.04740 14963 ft 357 kts 82°
2026-04-14 11:29 51.16753 12.08635 14433 ft 355 kts 82°
2026-04-14 11:29 51.17150 12.12506 13902 ft 354 kts 82°
2026-04-14 11:29 51.17550 12.16415 13334 ft 351 kts 82°
2026-04-14 11:29 51.17941 12.20240 12810 ft 348 kts 82°
2026-04-14 11:30 51.18322 12.23975 12622 ft 334 kts 82°
2026-04-14 11:30 51.18685 12.27560 12489 ft 321 kts 82°
2026-04-14 11:30 51.19033 12.31017 12259 ft 312 kts 82°
2026-04-14 11:30 51.19405 12.34400 11988 ft 308 kts 77°
2026-04-14 11:31 51.20153 12.37587 11736 ft 307 kts 63°
2026-04-14 11:31 51.21280 12.40466 11432 ft 307 kts 57°
2026-04-14 11:31 51.22458 12.43324 10951 ft 309 kts 57°
2026-04-14 11:31 51.23629 12.46178 10549 ft 308 kts 57°
2026-04-14 11:32 51.24801 12.49039 10330 ft 305 kts 57°
2026-04-14 11:32 51.25952 12.51855 9822 ft 303 kts 57°
2026-04-14 11:32 51.27097 12.54667 9273 ft 301 kts 57°
2026-04-14 11:32 51.28230 12.57460 8825 ft 299 kts 57°
2026-04-14 11:33 51.29353 12.60233 8354 ft 297 kts 57°
2026-04-14 11:33 51.30473 12.62991 7851 ft 294 kts 57°
2026-04-14 11:33 51.31565 12.65672 7711 ft 284 kts 57°
2026-04-14 11:34 51.34513 12.69357 7182 ft 267 kts 16°
2026-04-14 11:34 51.36317 12.69822 6711 ft 261 kts 356°
2026-04-14 11:34 51.38122 12.69624 6188 ft 259 kts 353°
2026-04-14 11:34 51.39909 12.69414 5660 ft 257 kts 353°
2026-04-14 11:35 51.41608 12.68775 5201 ft 246 kts 328°
2026-04-14 11:35 51.42755 12.66938 5004 ft 225 kts 296°
2026-04-14 11:35 51.43121 12.64667 4986 ft 204 kts 269°
2026-04-14 11:35 51.43034 12.62413 4963 ft 201 kts 266°
2026-04-14 11:36 51.42941 12.60229 4781 ft 193 kts 266°
2026-04-14 11:36 51.42850 12.58124 4583 ft 185 kts 266°
2026-04-14 11:36 51.42763 12.56098 4304 ft 179 kts 266°
2026-04-14 11:36 51.42678 12.54149 4064 ft 172 kts 267°
2026-04-14 11:37 51.42596 12.52276 3834 ft 165 kts 268°
2026-04-14 11:37 51.42517 12.50473 3618 ft 159 kts 268°
2026-04-14 11:37 51.42442 12.48768 3417 ft 145 kts 268°
2026-04-14 11:37 51.42375 12.47241 3220 ft 130 kts 270°
2026-04-14 11:38 51.42312 12.45822 3039 ft 125 kts 269°
2026-04-14 11:38 51.42251 12.44437 2872 ft 125 kts 270°
2026-04-14 11:38 51.42190 12.43056 2704 ft 124 kts 271°
2026-04-14 11:38 51.42129 12.41682 2541 ft 123 kts 271°
2026-04-14 11:39 51.42067 12.40293 2375 ft 123 kts 270°
2026-04-14 11:39 51.42006 12.38938 2204 ft 121 kts 270°
2026-04-14 11:39 51.41945 12.37586 2036 ft 121 kts 271°
2026-04-14 11:39 51.41885 12.36253 1870 ft 119 kts 270°
2026-04-14 11:40 51.41825 12.34931 1707 ft 119 kts 271°
2026-04-14 11:40 51.41765 12.33614 1539 ft 119 kts 270°
2026-04-14 11:40 51.41706 12.32292 1368 ft 119 kts 270°
2026-04-14 11:40 51.41645 12.30979 1198 ft 117 kts 269°
2026-04-14 11:41 51.41586 12.29668 1028 ft 119 kts 268°
2026-04-14 11:41 51.41526 12.28355 861 ft 118 kts 269°
2026-04-14 11:41 51.41465 12.27044 701 ft 117 kts 268°
2026-04-14 11:41 51.41406 12.25743 554 ft 117 kts 268°
2026-04-14 11:42 51.41355 12.24483 478 ft 102 kts 267°
2026-04-14 11:42 51.41311 12.23590 472 ft 44 kts 264°
2026-04-14 11:42 51.41296 12.23331 470 ft 13 kts 269°
2026-04-14 11:42 51.41354 12.23253 469 ft 13 kts 356°
2026-04-14 11:43 51.41426 12.23245 466 ft 11 kts 355°
2026-04-14 11:43 51.41501 12.23235 465 ft 10 kts 355°
2026-04-14 11:43 51.41573 12.23224 463 ft 11 kts 348°
2026-04-14 11:43 51.41620 12.23116 463 ft 14 kts 286°
2026-04-14 11:44 51.41647 12.22956 458 ft 14 kts 285°
2026-04-14 11:44 51.41661 12.22879 455 ft 0 kts 285°
2026-04-14 11:45 51.41665 12.22851 452 ft 5 kts 285°
2026-04-14 11:46 51.41680 12.22760 450 ft 11 kts 284°
2026-04-14 11:46 51.41705 12.22624 446 ft 14 kts 287°
2026-04-14 11:46 51.41734 12.22455 437 ft 17 kts 285°
2026-04-14 11:46 51.41769 12.22255 432 ft 19 kts 285°
2026-04-14 11:47 51.41797 12.22083 430 ft 15 kts 285°
2026-04-14 11:47 51.41823 12.21938 425 ft 11 kts 290°
2026-04-14 11:47 51.41873 12.21934 436 ft 4 kts 19°
2026-04-14 11:47 51.41895 12.21945 436 ft 2 kts 14°
2026-04-14 11:48 51.41907 12.21950 436 ft 2 kts 14°
2026-04-14 11:48 51.41916 12.21954 436 ft 1 kts 14°
2026-04-14 11:48 51.41920 12.21955 436 ft 1 kts 15°
2026-04-14 11:48 51.41924 12.21957 436 ft 0 kts 15°
2026-04-14 11:49 51.41928 12.21959 436 ft 0 kts 16°